Vilalleons





Hora UTC 13:15
Temperatura 22.5 ºC
Humitat 62.0 %
Pressió 1017.3 hPa
Pluja 0.2 mm
Velocitat vent 3.2 km/h
Direcció vent N

Dades diàries 2021-09-19



Hora UTC (hivern +1h; estiu +2h)
Temperatura (ºC) Humitat (%) Pressió (hPa) Velocitat vent (km/h) Precipitació (mm)
Hora UTC Aire Humitat Pressió Vel. Dir. Vel. Max Dir. Intent. màx 5 min.
00:05 15.9 97.0 1014.7 1.6 WNW 1.6 0.0
00:10 15.9 97.0 1014.8 0.0 W 4.8 0.2
00:15 15.9 97.0 1014.8 1.6 W 9.7 0.0
00:20 15.8 97.0 1014.9 1.6 W 9.7 0.0
00:25 15.8 97.0 1014.9 1.6 WSW 6.4 0.0
00:30 15.7 97.0 1015.0 0.0 SW 4.8 0.0
00:35 15.7 97.0 1015.1 1.6 SW 4.8 0.0
00:40 15.7 97.0 1015.1 0.0 SSE 9.7 0.0
00:45 15.7 97.0 1015.1 3.2 WSW 9.7 0.0
00:50 15.6 97.0 1015.0 6.4 SW 12.9 0.0
00:55 15.5 96.0 1015.0 3.2 SW 14.5 0.0
01:00 15.3 96.0 1015.1 6.4 WSW 12.9 0.0
01:05 15.1 96.0 1015.2 1.6 S 12.9 0.0
01:10 14.9 96.0 1015.0 4.8 ESE 12.9 0.0
01:15 14.7 96.0 1014.8 3.2 S 6.4 0.0
01:20 14.6 95.0 1014.8 1.6 SE 6.4 0.0
01:25 14.5 96.0 1014.7 4.8 SE 8.0 0.0
01:30 14.4 96.0 1014.9 3.2 SSE 8.0 0.0
01:35 14.3 96.0 1014.9 3.2 S 8.0 0.0
01:40 14.2 96.0 1014.9 1.6 S 8.0 0.0
01:45 14.1 96.0 1014.9 8.0 SSW 8.0 0.0
01:50 14.1 96.0 1015.0 1.6 SSE 12.9 0.0
01:55 14.1 96.0 1015.1 6.4 S 8.0 0.0
02:00 14.0 96.0 1015.0 4.8 SSW 11.3 0.0
02:05 13.9 95.0 1015.0 3.2 S 9.7 0.0
02:10 13.8 95.0 1015.0 1.6 S 6.4 0.0
02:15 13.7 96.0 1015.1 1.6 SSE 4.8 0.0
02:20 13.7 95.0 1015.0 3.2 SE 6.4 0.0
02:25 13.6 95.0 1015.1 1.6 SSE 8.0 0.0
02:30 13.6 95.0 1015.1 0.0 ESE 6.4 0.0
02:35 13.5 95.0 1015.0 1.6 SW 9.7 0.0
02:40 13.5 95.0 1015.1 1.6 SSW 9.7 0.0
02:45 13.4 95.0 1015.1 0.0 SSW 4.8 0.0
02:50 13.3 95.0 1015.0 1.6 SSE 4.8 0.0
02:55 13.2 95.0 1015.2 1.6 SSW 4.8 0.0
03:00 13.2 95.0 1015.2 1.6 WNW 8.0 0.0
03:05 13.2 95.0 1015.2 1.6 SE 8.0 0.0
03:10 13.1 95.0 1015.2 1.6 SSE 8.0 0.0
03:15 12.9 94.0 1015.1 1.6 SE 4.8 0.0
03:20 12.8 93.0 1015.4 1.6 W 4.8 0.0
03:25 12.8 93.0 1015.3 1.6 WNW 4.8 0.0
03:30 12.8 94.0 1015.4 1.6 WNW 3.2 0.0
03:35 12.9 94.0 1015.4 1.6 WNW 3.2 0.0
03:40 12.8 94.0 1015.5 0.0 SSE 3.2 0.0
03:45 12.7 94.0 1015.4 3.2 SSE 3.2 0.0
03:50 12.5 94.0 1015.4 1.6 SSE 3.2 0.0
03:55 12.3 94.0 1015.5 1.6 SSE 3.2 0.0
04:00 12.2 94.0 1015.4 3.2 SSE 3.2 0.0
04:05 11.9 94.0 1015.6 1.6 SSE 3.2 0.0
04:10 11.7 94.0 1015.5 0.0 SSE 3.2 0.0
04:15 11.6 95.0 1015.5 1.6 SSE 3.2 0.0
04:20 11.4 94.0 1015.5 0.0 SSE 3.2 0.0
04:25 11.3 94.0 1015.6 0.0 SSE 3.2 0.0
04:30 11.1 95.0 1015.7 1.6 SSE 3.2 0.0
04:35 10.9 94.0 1015.6 1.6 SSE 3.2 0.0
04:40 10.8 95.0 1015.7 0.0 SSE 3.2 0.0
04:45 10.6 95.0 1015.9 1.6 SSE 3.2 0.0
04:50 10.5 95.0 1015.8 0.0 SSE 3.2 0.0
04:55 10.4 95.0 1015.9 1.6 SSE 3.2 0.0
05:00 10.3 95.0 1016.0 1.6 SSE 3.2 0.0
05:05 10.3 95.0 1016.1 3.2 SSE 3.2 0.0
05:10 10.3 96.0 1016.1 1.6 SSE 3.2 0.0
05:15 10.1 95.0 1016.1 1.6 SSE 3.2 0.0
05:20 10.1 96.0 1016.2 1.6 SSE 3.2 0.0
05:25 9.9 96.0 1016.3 0.0 SSE 3.2 0.0
05:30 9.9 96.0 1016.3 3.2 SSE 3.2 0.0
05:35 9.8 96.0 1016.2 3.2 SSE 3.2 0.0
05:40 9.8 96.0 1016.4 0.0 SSE 3.2 0.0
05:45 9.7 96.0 1016.4 0.0 SSE 3.2 0.0
05:50 9.7 96.0 1016.4 1.6 SSE 3.2 0.0
05:55 9.7 96.0 1016.4 1.6 SSE 3.2 0.0
06:00 9.7 96.0 1016.5 0.0 SSE 4.8 0.0
06:05 9.6 96.0 1016.6 3.2 SSE 3.2 0.0
06:10 9.6 96.0 1016.7 3.2 SSE 3.2 0.0
06:15 9.6 96.0 1016.7 3.2 SSE 3.2 0.0
06:20 9.6 96.0 1016.8 0.0 SSE 3.2 0.0
06:25 9.6 96.0 1016.9 0.0 SSE 3.2 0.0
06:30 9.6 96.0 1017.0 0.0 SSE 3.2 0.0
06:35 9.7 97.0 1016.9 1.6 SSE 3.2 0.0
06:40 9.9 97.0 1016.9 0.0 SSE 3.2 0.0
06:45 10.1 97.0 1016.9 3.2 SSE 3.2 0.0
06:50 10.3 98.0 1016.9 1.6 SSE 3.2 0.0
06:55 10.5 98.0 1017.0 1.6 SSE 3.2 0.0
07:00 10.7 98.0 1017.0 0.0 SSE 3.2 0.0
07:05 10.9 98.0 1017.0 1.6 SSE 3.2 0.0
07:10 11.2 98.0 1017.1 0.0 SSE 3.2 0.0
07:15 11.4 98.0 1017.2 0.0 SSE 1.6 0.0
07:20 11.6 98.0 1017.3 0.0 SSE 3.2 0.0
07:25 11.8 98.0 1017.3 0.0 SSE 3.2 0.0
07:30 11.8 98.0 1017.4 0.0 SSE 1.6 0.0
07:35 11.8 98.0 1017.4 1.6 SSE 3.2 0.0
07:40 11.8 97.0 1017.4 1.6 N 3.2 0.0
07:45 11.9 97.0 1017.4 1.6 N 3.2 0.0
07:50 12.2 97.0 1017.5 3.2 N 3.2 0.0
07:55 12.6 97.0 1017.6 1.6 N 4.8 0.0
08:00 12.8 95.0 1017.6 3.2 NW 4.8 0.0
08:05 13.1 94.0 1017.6 0.0 NNW 6.4 0.0
08:10 13.5 95.0 1017.7 3.2 W 6.4 0.0
08:15 13.8 94.0 1017.9 0.0 WNW 4.8 0.0
08:20 13.9 92.0 1017.8 1.6 N 6.4 0.0
08:25 13.9 92.0 1017.8 0.0 N 6.4 0.0
08:30 14.2 93.0 1017.8 1.6 N 4.8 0.0
08:35 14.4 91.0 1017.9 1.6 WSW 6.4 0.0
08:40 14.4 90.0 1018.1 0.0 NNW 6.4 0.0
08:45 14.6 90.0 1018.2 3.2 WSW 4.8 0.0
08:50 14.6 89.0 1018.2 4.8 NNE 8.0 0.0
08:55 14.6 89.0 1018.3 3.2 NE 8.0 0.0
09:00 14.6 89.0 1018.2 1.6 NNE 6.4 0.0
09:05 14.7 88.0 1018.3 1.6 NNE 8.0 0.0
09:10 14.8 88.0 1018.3 0.0 NNE 8.0 0.0
09:15 15.0 87.0 1018.3 1.6 NNE 6.4 0.0
09:20 15.1 86.0 1018.3 3.2 NNE 8.0 0.0
09:25 15.2 86.0 1018.4 1.6 SSE 8.0 0.0
09:30 15.8 88.0 1018.6 3.2 SE 6.4 0.0
09:35 16.4 87.0 1018.5 1.6 N 6.4 0.0
09:40 16.8 83.0 1018.4 3.2 NW 6.4 0.0
09:45 16.7 81.0 1018.4 0.0 NW 6.4 0.0
09:50 16.8 83.0 1018.4 3.2 N 6.4 0.0
09:55 16.9 81.0 1018.3 0.0 NW 6.4 0.0
10:00 17.0 82.0 1018.3 0.0 NNE 6.4 0.0
10:05 17.3 84.0 1018.3 4.8 NNW 6.4 0.0
10:10 17.3 84.0 1018.3 0.0 NW 8.0 0.0
10:15 17.4 80.0 1018.2 3.2 WNW 8.0 0.0
10:20 17.6 79.0 1018.1 4.8 NNW 8.0 0.0
10:25 17.7 80.0 1018.1 3.2 W 8.0 0.0
10:30 17.8 79.0 1018.1 0.0 W 6.4 0.0
10:35 17.8 78.0 1018.0 4.8 WSW 4.8 0.0
10:40 18.1 76.0 1017.9 3.2 N 8.0 0.0
10:45 18.1 77.0 1017.8 1.6 NNW 6.4 0.0
10:50 18.2 78.0 1017.8 3.2 N 8.0 0.0
10:55 18.1 79.0 1017.8 6.4 NNE 8.0 0.0
11:00 18.1 80.0 1017.7 8.0 NW 8.0 0.0
11:05 18.2 77.0 1017.7 4.8 NNW 8.0 0.0
11:10 18.6 79.0 1017.8 3.2 NW 8.0 0.0
11:15 18.8 74.0 1017.8 0.0 NNE 6.4 0.0
11:20 19.2 77.0 1017.8 1.6 NNW 9.7 0.0
11:25 19.3 74.0 1017.8 3.2 NW 9.7 0.0
11:30 19.5 76.0 1017.9 1.6 NNW 6.4 0.0
11:35 19.9 75.0 1017.8 3.2 N 6.4 0.0
11:40 20.1 72.0 1017.8 1.6 NE 6.4 0.0
11:45 20.1 75.0 1017.7 3.2 WNW 6.4 0.0
11:50 20.2 72.0 1017.8 3.2 WNW 8.0 0.0
11:55 20.4 69.0 1017.8 1.6 W 6.4 0.0
12:00 20.8 70.0 1017.8 1.6 S 6.4 0.0
12:05 21.2 65.0 1017.7 6.4 SW 12.9 0.0
12:10 21.2 70.0 1017.6 4.8 W 12.9 0.0
12:15 21.3 68.0 1017.7 1.6 WNW 6.4 0.0
12:20 21.6 69.0 1017.7 3.2 NNW 6.4 0.0
12:25 21.7 68.0 1017.7 1.6 WSW 8.0 0.0
12:30 21.8 63.0 1017.6 3.2 NNW 8.0 0.0
12:35 21.9 65.0 1017.5 0.0 WSW 9.7 0.0
12:40 22.1 61.0 1017.6 6.4 NW 9.7 0.0
12:45 22.4 68.0 1017.4 1.6 SSW 8.0 0.0
12:50 22.6 60.0 1017.5 1.6 NNW 9.7 0.0
12:55 22.4 61.0 1017.5 1.6 NE 9.7 0.0
13:00 22.5 66.0 1017.5 3.2 W 6.4 0.0
13:05 22.7 60.0 1017.4 9.7 W 9.7 0.0
13:10 22.6 61.0 1017.4 4.8 SSW 12.9 0.0
13:15 22.5 62.0 1017.3 3.2 N 9.7 0.0
Màxima 22.7 98.0 1018.6 9.7 W 14.5 0.2
Mínima 9.6 60.0 1014.7
Total 0.2